Location: Unspecified
(34.4950°S, 58.5160°W)
Time: 15:18:46
(UTC+00:00)

Cosmos 1655 Rocket - Pass Details

Date: 02 July 2022
Orbit: 971 x 1005 km, 83.0° (Epoch: 11 August)

Event Time Altitude Azimuth Distance (km) Brightness Sun altitude
Rises 23:39:50 0° 342° (NNW) 3,709 7.3 -33.1°
Reaches altitude 10° 23:42:25 10° 337° (NNW) 2,771 6.6 -33.7°
Maximum altitude 23:48:37 54° 261° (W) 1,219 4.6 -34.9°
Enters shadow 23:49:30 50° 233° (SW) 1,270 4.7 -35.1°
